ZL1TQN Weather Reports


Display with metric or nautical units.
time (UTC)temp
F
wind
direction
speed
MPH
gust
MPH
rain 1hr
in
rain 24hr
in
rain mn
in
humidity
%
barometer
mb
20260901175505 51 281 2.0 6.0 0.00 0.00 0.00 78 1017.3
20260901174505 50 267 1.0 6.0 0.00 0.00 0.00 78 1017.2
20260901174006 50 224 2.0 6.0 0.00 0.00 0.00 78 1017.1
20260901173504 50 257 1.0 7.0 0.00 0.00 0.00 78 1017.1
20260901173005 50 244 3.0 7.0 0.00 0.00 0.00 78 1017.0
20260901172505 50 247 3.0 6.0 0.00 0.00 0.00 78 1017.0
20260901172004 50 241 1.0 6.0 0.00 0.00 0.00 78 1016.9
20260901171504 50 266 2.0 6.0 0.00 0.00 0.00 78 1016.8
20260901171005 50 286 2.0 6.0 0.00 0.00 0.00 79 1016.8
20260901165504 50 298 0.0 3.0 0.00 0.00 0.00 78 1016.7
20260901164504 50 199 0.0 3.0 0.00 0.00 0.00 78 1016.7
20260901164005 50 295 2.0 6.0 0.00 0.00 0.00 78 1016.6
20260901163005 50 243 2.0 7.0 0.00 0.00 0.00 79 1016.4
20260901162504 50 249 2.0 6.0 0.00 0.00 0.00 79 1016.6
20260901162005 49 237 3.0 9.0 0.00 0.00 0.00 79 1016.6
20260901161504 49 184 2.0 9.0 0.00 0.00 0.00 80 1016.6
20260901160004 48 225 2.0 5.0 0.00 0.00 0.00 82 1016.6
20260901155505 47 230 2.0 3.0 0.00 0.00 0.00 83 1016.6
20260901155004 47 239 2.0 3.0 0.00 0.00 0.00 83 1016.7
20260901154504 47 198 2.0 5.0 0.00 0.00 0.00 82 1016.7
20260901154004 47 320 2.0 5.0 0.00 0.00 0.00 83 1016.7
20260901153504 47 267 1.0 3.0 0.00 0.00 0.00 82 1016.7
20260901153004 47 290 1.0 3.0 0.00 0.00 0.00 81 1016.7
20260901152505 48 276 1.0 3.0 0.00 0.00 0.00 80 1016.7
20260901151505 49 274 0.0 2.0 0.00 0.00 0.00 79 1016.9
20260901150005 49 262 1.0 3.0 0.00 0.00 0.00 78 1017.1
20260901145005 50 256 1.0 6.0 0.00 0.00 0.00 78 1017.2
20260901144505 49 243 3.0 9.0 0.00 0.00 0.00 79 1017.2
20260901144004 49 180 2.0 9.0 0.00 0.00 0.00 79 1017.2
20260901143504 49 252 2.0 9.0 0.00 0.00 0.00 80 1017.2
20260901143005 48 191 1.0 5.0 0.00 0.00 0.00 80 1017.2
20260901142505 48 212 2.0 5.0 0.00 0.00 0.00 80 1017.2
20260901142006 48 196 1.0 3.0 0.00 0.00 0.00 81 1017.2
20260901141505 48 162 2.0 3.0 0.00 0.00 0.00 82 1017.3
20260901135505 46 158 0.0 2.0 0.00 0.00 0.00 85 1017.7
20260901135004 46 158 0.0 2.0 0.00 0.00 0.00 84 1017.8
20260901134505 46 158 0.0 3.0 0.00 0.00 0.00 84 1017.8
20260901134005 46 174 0.0 3.0 0.00 0.00 0.00 85 1017.8
20260901133504 46 193 0.0 3.0 0.00 0.00 0.00 84 1017.9
20260901133005 46 191 2.0 3.0 0.00 0.00 0.00 85 1017.9
20260901132504 46 326 0.0 0.0 0.00 0.00 0.00 85 1017.8
20260901132004 46 23 0.0 0.0 0.00 0.00 0.00 85 1017.7
20260901131504 46 23 0.0 0.0 0.00 0.00 0.00 85 1017.7
20260901131005 46 23 0.0 0.0 0.00 0.00 0.00 85 1017.9
20260901130004 46 23 0.0 0.0 0.00 0.00 0.00 85 1017.9
20260901125504 46 23 0.0 0.0 0.00 0.00 0.00 84 1017.9
20260901125004 46 23 0.0 0.0 0.00 0.00 0.00 84 1017.9
20260901124505 46 23 0.0 0.0 0.00 0.00 0.00 84 1017.9
20260901124004 46 23 0.0 1.0 0.00 0.00 0.00 83 1017.9
20260901123504 46 23 0.0 1.0 0.00 0.00 0.00 84 1017.9
20260901123004 46 13 0.0 1.0 0.00 0.00 0.00 84 1017.8
20260901122004 46 325 0.0 0.0 0.00 0.00 0.00 83 1017.7
20260901121504 47 325 0.0 3.0 0.00 0.00 0.00 82 1017.7
20260901121004 47 12 0.0 3.0 0.00 0.00 0.00 82 1017.7
20260901115005 48 325 0.0 0.0 0.00 0.00 0.00 80 1017.5
20260901114504 48 325 0.0 0.0 0.00 0.00 0.00 80 1017.5
20260901114004 48 325 0.0 0.0 0.00 0.00 0.00 80 1017.5
20260901113504 48 325 0.0 0.0 0.00 0.00 0.00 80 1017.5